Flag for Germany Weather past 2 weeks in Bad Nauheim, Hesse, Germany

37 °F

Light rain. Low clouds.

Feels Like: 37 °F
Forecast: 31 / 40 °F
Wind: 1 mph from Southeast

Location: Giessen

Current Time: Nov 25, 2015 at 5:41:11 PM

Latest Report: Nov 25, 2015 at 5:00 PM

Visibility: 3 mi

Pressure: 29.72 "Hg

Humidity: 99%

Dew point: 37 °F

Location of Bad NauheimLocation

Historic Weather in Bad Nauheim — Graph


Bad Nauheim temperature yesterday

Maximum temperature yesterday: 36 °F (at 2:00 PM)
Minimum temperature yesterday: 28 °F (at 4:00 AM)
Average temperature yesterday: 32 °F

Past Weeks' High & Low Weather Summary

High58 °F (Nov 12, 2:00 PM)100% (Nov 13, 3:00 AM)30.35 "Hg (Nov 13, 3:00 AM)
Low28 °F (Nov 24, 4:00 AM)60% (Nov 18, 4:00 AM)29.41 "Hg (Nov 21, 1:00 PM)
Average46 °F85%30.00 "Hg
* Reported Nov 10 4:00 PM — Nov 25 4:00 PM, Bad Nauheim, Weather by CustomWeather, © 2015

Note: Actual official high and low records may vary slightly from our data, if they occured in-between our weather recording intervals... More about our weather records


Bad Nauheim weather history for previous 24 hours

Time TempWeatherWind HumidityBarometerVisibility
4:00 PM
Wed, Nov 25
37 °FLow clouds.2 mph97%29.72 "Hg4 mi
3:00 PM37 °FFog.2 mph97%29.72 "Hg4 mi
2:00 PM36 °FFog.2 mph97%29.72 "Hg4 mi
1:00 PM35 °FFog.1 mph98%29.74 "Hg3 mi
12:00 PM34 °FLow clouds.2 mph99%29.75 "Hg3 mi
11:00 AM34 °FLight rain. Low clouds.1 mph99%29.77 "Hg2 mi
10:00 AM33 °FFreezing rain. Low clouds.1 mph100%29.77 "Hg2 mi
9:00 AM33 °FDrizzle. Low clouds.2 mph99%29.77 "Hg2 mi
7:00 AM33 °FLight snow. Low clouds.2 mph99%29.77 "Hg2 mi
4:00 AM32 °FLow clouds.3 mph98%29.80 "Hg6 mi
3:00 AM32 °FSnow flurries. Low clouds.3 mph98%29.81 "Hg6 mi
2:00 AM32 °FLight snow. Low clouds.3 mph100%29.83 "Hg2 mi
10:00 PM
Tue, Nov 24
32 °FLight snow. Low clouds.6 mph100%29.92 "Hg1 mi
9:00 PM33 °FSnow. Low clouds.6 mph98%29.94 "Hg1 mi
8:00 PM33 °FLight snow. Low clouds.6 mph96%29.96 "Hg2 mi
7:00 PM34 °FLight snow. Overcast.7 mph90%29.99 "Hg3 mi
6:00 PM35 °FFog.7 mph82%30.02 "Hg8 mi
5:00 PM35 °FOvercast.6 mph82%30.03 "Hg10 mi
Weather by CustomWeather, © 2015

See weather overviewHow to use our weather pages